Retour au catalogue

STARLINK-11355

ActifCommunicationsVLEO
NORAD 62415·PAYLOAD·🇺🇸 United States

Lancé Dec 23, 2024 depuis Cape Canaveral Space Force Station

Loading…

Prochains Passages (prochaines 24 heures)

TLE

FraisSource: CelesTrak SupGP

Époque: Sep 15, 2026, 02:14 UTC

1 62415C 24249G   26258.09354167  .00106860  00000+0  82952-3 0  2584
2 62415  43.0006 105.7696 0001932 266.2344  10.6746 15.70799080    10

Suivez STARLINK-11355 en temps réel avec AllMySat

Download on the App Store